Taylorville, IL

5:04 AM CST on January 19, 2017 (GMT -0600)
Taylorville Municipal

Weather History for KTAZ - January, 2014

Change the Weather History Date:

Monday, January 13, 2014

  Actual Average (KSPI) Record (KSPI)
Temperature  
Mean Temperature 40 °F -  
Max Temperature 50 °F 31 °F 60 °F (1950)
Min Temperature 28 °F 16 °F -11 °F (1912)
Degree Days  
Heating Degree Days 25    
Moisture  
Dew Point 34 °F    
Average Humidity 77    
Maximum Humidity 100    
Minimum Humidity 62    
Precipitation  
Precipitation 0.00 in - - ()
Sea Level Pressure  
Sea Level Pressure 29.71 in    
Wind  
Wind Speed 15 mph (WSW)    
Max Wind Speed 22 mph    
Max Gust Speed 31 mph    
Visibility 10 miles    
Events      
Averages and records for this station are not official NWS values.
T = Trace of Precipitation, MM = Missing Value Source: NWS Daily Summary

Daily Weather History Graph

Daily Weather History Graph

Search for Another Location

Airport or City:

Trip Planner

Search our weather history database for the weather conditions in past years. The results will help you decide how hot, cold, wet, or windy it might be!

Date:

Astronomy

Jan. 13, 2014 Rise Set
Actual Time 7:16 AM CST 4:55 PM CST
Civil Twilight 6:47 AM CST 5:25 PM CST
Nautical Twilight 6:13 AM CST 5:58 PM CST
Astronomical Twilight 5:41 AM CST 6:30 PM CST
Moon 3:10 PM CST (1/13) 5:05 AM CST (1/13)
Length of Visible Light 10h 38m
Length of Day
9h 39m
Waxing Gibbous, 95% of the Moon is Illuminated
Jan 13
Waxing Gibbous
Jan 15
Full
Jan 23
Last Quarter
Jan 30
New
Feb 6
First Quarter

Hourly Weather History & Observations

Time (CST) Temp. Windchill Dew Point Humidity Pressure Visibility Wind Dir Wind Speed Gust Speed Precip Events Conditions
12:15 AM 42.8 °F 33.8 °F 33.8 °F 70% 29.65 in 10.0 mi South 21.9 mph 31.1 mph N/A   Clear
12:35 AM 42.8 °F 33.8 °F 33.8 °F 70% 29.65 in 10.0 mi South 21.9 mph 28.8 mph N/A   Clear
12:55 AM 42.8 °F 34.0 °F 33.8 °F 70% 29.65 in 10.0 mi South 20.7 mph 29.9 mph N/A   Clear
1:15 AM 42.8 °F 34.5 °F 33.8 °F 70% 29.65 in 10.0 mi South 18.4 mph 26.5 mph N/A   Clear
1:35 AM 42.8 °F 34.8 °F 33.8 °F 70% 29.65 in 10.0 mi South 17.3 mph 26.5 mph N/A   Clear
1:55 AM 42.8 °F 34.8 °F 33.8 °F 70% 29.65 in 10.0 mi South 17.3 mph - N/A   Clear
2:15 AM 42.8 °F 34.5 °F 33.8 °F 70% 29.65 in 10.0 mi South 18.4 mph 23.0 mph N/A   Clear
2:35 AM 42.8 °F 35.1 °F 33.8 °F 70% 29.65 in 10.0 mi South 16.1 mph - N/A   Clear
2:55 AM 42.8 °F 35.8 °F 33.8 °F 70% 29.65 in 10.0 mi South 13.8 mph 20.7 mph N/A   Clear
3:15 AM 42.8 °F 35.1 °F 33.8 °F 70% 29.64 in 10.0 mi South 16.1 mph - N/A   Clear
3:35 AM 42.8 °F 35.4 °F 33.8 °F 70% 29.63 in 10.0 mi South 15.0 mph 20.7 mph N/A   Clear
3:55 AM 42.8 °F 35.1 °F 33.8 °F 70% 29.63 in 10.0 mi South 16.1 mph - N/A   Clear
4:15 AM 42.8 °F 35.4 °F 33.8 °F 70% 29.63 in 10.0 mi South 15.0 mph 20.7 mph N/A   Clear
4:35 AM 42.8 °F 35.4 °F 33.8 °F 70% 29.61 in 10.0 mi South 15.0 mph - N/A   Scattered Clouds
4:55 AM 41.0 °F 33.5 °F 33.8 °F 76% 29.61 in 10.0 mi South 13.8 mph - N/A   Scattered Clouds
5:15 AM 41.0 °F 33.5 °F 33.8 °F 76% 29.60 in 10.0 mi South 13.8 mph - N/A   Clear
5:35 AM 41.0 °F 33.1 °F 33.8 °F 76% 29.59 in 10.0 mi South 15.0 mph - N/A   Clear
5:55 AM 41.0 °F 33.9 °F 33.8 °F 76% 29.59 in 10.0 mi South 12.7 mph - N/A   Clear
6:15 AM 41.0 °F 33.9 °F 33.8 °F 76% 29.59 in 10.0 mi South 12.7 mph - N/A   Clear
6:35 AM 41.0 °F 32.8 °F 33.8 °F 76% 29.58 in 10.0 mi South 16.1 mph - N/A   Clear
6:55 AM 42.8 °F 35.4 °F 35.6 °F 76% 29.60 in 10.0 mi South 15.0 mph 25.3 mph N/A   Clear
7:15 AM 41.0 °F 33.1 °F 35.6 °F 81% 29.61 in 10.0 mi South 15.0 mph - N/A   Clear
7:35 AM 41.0 °F 32.8 °F 35.6 °F 81% 29.62 in 10.0 mi South 16.1 mph 23.0 mph N/A   Clear
7:55 AM 41.0 °F 34.7 °F 35.6 °F 81% 29.63 in 10.0 mi SSW 10.4 mph - N/A   Clear
8:15 AM 41.0 °F 33.9 °F 35.6 °F 81% 29.64 in 10.0 mi SSW 12.7 mph - N/A   Clear
8:35 AM 42.8 °F 36.6 °F 35.6 °F 76% 29.65 in 10.0 mi SSW 11.5 mph - N/A   Clear
8:55 AM 42.8 °F 36.2 °F 35.6 °F 76% 29.66 in 10.0 mi SSW 12.7 mph - N/A   Clear
9:15 AM 42.8 °F 37.0 °F 35.6 °F 76% 29.67 in 10.0 mi SW 10.4 mph - N/A   Clear
9:35 AM 42.8 °F 36.6 °F 35.6 °F 76% 29.68 in 10.0 mi WSW 11.5 mph - N/A   Clear
9:55 AM 42.8 °F 36.6 °F 35.6 °F 76% 29.68 in 10.0 mi WSW 11.5 mph - N/A   Clear
10:15 AM 42.8 °F 37.5 °F 35.6 °F 76% 29.69 in 10.0 mi WSW 9.2 mph - N/A   Clear
10:35 AM 42.8 °F 37.5 °F 35.6 °F 76% 29.70 in 10.0 mi WSW 9.2 mph - N/A   Clear
10:55 AM 44.6 °F 38.1 °F 35.6 °F 71% 29.70 in 10.0 mi West 13.8 mph 17.3 mph N/A   Clear
11:15 AM 42.8 °F 36.2 °F 35.6 °F 76% 29.70 in 10.0 mi West 12.7 mph 21.9 mph N/A   Clear
11:35 AM 42.8 °F 37.0 °F 35.6 °F 76% 29.70 in 10.0 mi West 10.4 mph - N/A   Clear
11:55 AM 44.6 °F 39.2 °F 37.4 °F 76% 29.69 in 10.0 mi WSW 10.4 mph - N/A   Clear
12:15 PM 46.4 °F 41.1 °F 35.6 °F 66% 29.68 in 10.0 mi West 11.5 mph - N/A   Clear
12:35 PM 46.4 °F 40.7 °F 35.6 °F 66% 29.68 in 10.0 mi West 12.7 mph 20.7 mph N/A   Clear
12:55 PM 46.4 °F 40.7 °F 37.4 °F 71% 29.68 in 10.0 mi West 12.7 mph - N/A   Clear
1:15 PM 48.2 °F - 37.4 °F 66% 29.68 in 10.0 mi West 13.8 mph 19.6 mph N/A   Clear
1:35 PM 50.0 °F - 37.4 °F 62% 29.68 in 10.0 mi West 12.7 mph - N/A   Clear
1:55 PM 48.2 °F - 37.4 °F 66% 29.68 in 10.0 mi West 11.5 mph - N/A   Clear
2:15 PM 50.0 °F - 37.4 °F 62% 29.68 in 10.0 mi West 13.8 mph - N/A   Clear
2:35 PM 50.0 °F - 37.4 °F 62% 29.68 in 10.0 mi West 11.5 mph - N/A   Clear
2:55 PM 50.0 °F - 37.4 °F 62% 29.70 in 10.0 mi West 15.0 mph - N/A   Clear
3:15 PM 50.0 °F - 37.4 °F 62% 29.70 in 10.0 mi West 15.0 mph 20.7 mph N/A   Clear
3:35 PM 48.2 °F - 37.4 °F 66% 29.71 in 10.0 mi West 12.7 mph - N/A   Clear
3:55 PM 46.4 °F 41.5 °F 35.6 °F 66% 29.73 in 10.0 mi West 10.4 mph 17.3 mph N/A   Clear
4:15 PM 46.4 °F 40.7 °F 35.6 °F 66% 29.74 in 10.0 mi West 12.7 mph 18.4 mph N/A   Clear
4:35 PM 44.6 °F 39.2 °F 35.6 °F 71% 29.75 in 10.0 mi WNW 10.4 mph - N/A   Mostly Cloudy
4:55 PM 42.8 °F 35.1 °F 33.8 °F 70% 29.76 in 10.0 mi WNW 16.1 mph 21.9 mph N/A   Overcast
5:15 PM 41.0 °F 34.3 °F 33.8 °F 76% 29.76 in 10.0 mi NW 11.5 mph - N/A   Scattered Clouds
5:35 PM 41.0 °F 35.2 °F 33.8 °F 76% 29.78 in 10.0 mi WNW 9.2 mph - N/A   Clear
5:55 PM 37.4 °F 30.3 °F 33.8 °F 87% 29.79 in 10.0 mi NW 10.4 mph - N/A   Clear
6:15 PM 37.4 °F 30.8 °F 32.0 °F 81% 29.80 in 10.0 mi NW 9.2 mph - N/A   Clear
6:35 PM 37.4 °F 30.3 °F 32.0 °F 81% 29.81 in 10.0 mi NW 10.4 mph - N/A   Clear
6:55 PM 35.6 °F 27.5 °F 32.0 °F 87% 29.82 in 10.0 mi NNW 11.5 mph - N/A   Clear
7:15 PM 33.8 °F 27.7 °F 32.0 °F 93% 29.83 in 10.0 mi NW 6.9 mph - N/A   Clear
7:35 PM 33.8 °F 24.8 °F 32.0 °F 93% 29.83 in 10.0 mi WNW 12.7 mph - N/A   Clear
7:55 PM 33.8 °F 25.8 °F 30.2 °F 87% 29.84 in 10.0 mi NW 10.4 mph - N/A   Clear
8:15 PM 33.8 °F 25.3 °F 30.2 °F 87% 29.85 in 10.0 mi WNW 11.5 mph - N/A   Clear
8:35 PM 32.0 °F 23.6 °F 30.2 °F 93% 29.85 in 10.0 mi WNW 10.4 mph - N/A   Clear
8:55 PM 32.0 °F 25.6 °F 30.2 °F 93% 29.84 in 10.0 mi WNW 6.9 mph - N/A   Clear
9:15 PM 32.0 °F 26.4 °F 30.2 °F 93% 29.85 in 10.0 mi West 5.8 mph - N/A   Clear
9:35 PM 32.0 °F 25.6 °F 30.2 °F 93% 29.85 in 10.0 mi WNW 6.9 mph - N/A   Clear
9:55 PM 32.0 °F 25.6 °F 30.2 °F 93% 29.85 in 10.0 mi WNW 6.9 mph - N/A   Clear
10:15 PM 32.0 °F 25.6 °F 30.2 °F 93% 29.85 in 10.0 mi WNW 6.9 mph - N/A   Clear
10:35 PM 32.0 °F 28.7 °F 28.4 °F 87% 29.85 in 10.0 mi West 3.5 mph - N/A   Clear
10:55 PM 30.2 °F - 28.4 °F 93% 29.84 in 10.0 mi Calm Calm - N/A   Clear
11:15 PM 32.0 °F - 28.4 °F 87% 29.84 in 10.0 mi Calm Calm - N/A   Clear
11:35 PM 30.2 °F - 28.4 °F 93% 29.84 in 10.0 mi Calm Calm - N/A   Clear
11:55 PM 28.4 °F 21.2 °F 28.4 °F 100% 29.84 in 5.0 mi SSW 6.9 mph - N/A   Clear